Location: Appeville
(49.3218°N, 1.3427°W)
Time: 18:37:10
(UTC+00:00)

CZ-2C R/B - Pass Details

Date: 08 December 2019
Orbit: 785 x 870 km, 98.3° (Epoch: 28 January)

Event Time Altitude Azimuth Distance (km) Brightness Sun altitude
Rises 06:39:01 0° 131° (SE) 3,343 7.4 -10.5°
Reaches altitude 10° 06:41:37 10° 121° (ESE) 2,401 6.6 -10.2°
Maximum altitude 06:46:08 29° 63° (ENE) 1,430 4.4 -9.5°
Drops below altitude 10° 06:50:36 10° 4° (N) 2,376 4.8 -8.8°
Sets 06:53:10 0° 354° (N) 3,302 5.5 -8.4°
